Flag for Mauritania Weather past 2 weeks in Nouadhibou, Mauritania

Now
70 °F

Passing clouds.


Feels Like: 70 °F
Forecast: 71 / 78 °F
Wind: 15 mph from North

Location: Nouadhibou Airport

Current Time: Jul 31, 2015 at 3:17:09 AM

Latest Report: Jul 31, 2015 at 3:00 AM


Visibility: 4 mi

Pressure: 29.86 "Hg

Humidity: 83%

Dew point: 64 °F

Location of NouadhibouLocation

Historic Weather in Nouadhibou — Graph

°F

Nouadhibou temperature yesterday

Maximum temperature yesterday: 79 °F (at 12:00 PM)
Minimum temperature yesterday: 68 °F (at 12:00 AM)
Average temperature yesterday: 73 °F

Past Weeks' High & Low Weather Summary

 TemperatureHumidityPressure
High93 °F (Jul 17, 12:00 PM)94% (Jul 16, 2:00 AM)30.01 "Hg (Jul 16, 2:00 AM)
Low66 °F (Jul 27, 5:00 AM)36% (Jul 17, 12:00 PM)29.74 "Hg (Jul 23, 5:00 PM)
Average73 °F79%29.87 "Hg
* Reported Jul 16 2:00 AM — Jul 31 2:00 AM, Nouadhibou, Weather by CustomWeather, © 2015

Note: Actual official high and low records may vary slightly from our data, if they occured in-between our weather recording intervals... More about our weather records

Advertising

Nouadhibou weather history for previous 24 hours

 ConditionsComfort  
Time TempWeatherWind HumidityBarometerVisibility
2:00 AM
Fri, Jul 31
70 °FPassing clouds.16 mph83%29.86 "Hg4 mi
1:00 AM72 °FPassing clouds.17 mph78%29.89 "Hg4 mi
12:00 AM73 °FPassing clouds.16 mph74%29.89 "Hg4 mi
11:00 PM
Thu, Jul 30
73 °FClear.15 mph74%29.89 "Hg4 mi
10:00 PM73 °FClear.16 mph74%29.89 "Hg4 mi
9:00 PM73 °FClear.10 mph74%29.86 "Hg4 mi
8:00 PM73 °FClear.10 mph74%29.83 "Hg4 mi
7:00 PM73 °FClear.15 mph74%29.80 "Hg4 mi
6:00 PM73 °FClear.22 mph74%29.80 "Hg4 mi
5:00 PM73 °FClear.23 mph74%29.80 "Hg4 mi
4:00 PM75 °FClear.22 mph69%29.80 "Hg4 mi
3:00 PM77 °FClear.20 mph65%29.83 "Hg4 mi
2:00 PM79 °FPassing clouds.16 mph61%29.86 "Hg4 mi
1:00 PM79 °FPassing clouds.16 mph61%29.86 "Hg4 mi
12:00 PM79 °FPassing clouds.16 mph61%29.86 "Hg5 mi
11:00 AM77 °FPassing clouds.13 mph69%29.89 "Hg5 mi
10:00 AM73 °FPassing clouds.21 mph74%29.89 "Hg5 mi
9:00 AM70 °FScattered clouds.16 mph88%29.86 "Hg5 mi
8:00 AM68 °FScattered clouds.16 mph88%29.89 "Hg4 mi
7:00 AM68 °FPassing clouds.16 mph88%29.86 "Hg4 mi
6:00 AM68 °FPassing clouds.12 mph88%29.86 "Hg4 mi
5:00 AM70 °FPassing clouds.14 mph83%29.86 "Hg4 mi
4:00 AM70 °FMild.10 mph83%29.86 "HgN/A
3:00 AM70 °FPassing clouds.10 mph83%29.89 "Hg4 mi
Weather by CustomWeather, © 2015

See weather overviewHow to use our weather pages